C/2020 Y2 ( ATLAS )

Japanese version
Home page
Updated on January 17, 2022

---------------------------------------------------------------------

* Profile

Discovery Date December 28, 2020
Magnitude 18.3 mag
Discoverer Asteroid Terrestrial-Impact Last Alert System (ATLAS) search program

* Pictures

* Orbital Elements

Epoch 2022 Jan. 21.0 TT = JDT 2459600.5
T 2022 June 17.67351 TT                                 Rudenko
q   3.1324835            (2000.0)            P               Q
z  +0.0008645      Peri.  266.09978     -0.14810146     +0.88682580
 +/-0.0000012      Node    26.51139     +0.52175931     +0.44606438
e   0.9972921      Incl.  101.29630     -0.84013878     +0.12069202
From 533 observations 2020 Mar. 25-2021 Dec. 8, mean residual 0".4.

* Finding Charts

* Magnitudes Graph

        m1 = -1.5 + 5 log d + 20.0 log r  [    ,-515]  (             - 2021 Jan. 18)
        m1 =  6.0 + 5 log d + 10.0 log r  [-515,    ]  (2021 Jan. 18 -             )

---------------------------------------------------------------------

The orbital elements are published on M.P.E.C. 2021-Y10.
The charts are made with StellaNavigator Ver.10 (AstroArts).
The magnitudes graphs are made with Comet for Windows.

---------------------------------------------------------------------

Copyright(C) Seiichi Yoshida (comet@aerith.net). All rights reserved.